^^
Grace C. Lehan Memorial Weather Station Historical Data
Daily Summary for March 4, 2021 Units:  English    Metric   Both
Daily Weekly Monthly Yearly
  High: Low: Average:
Temperature: 73.8 °F 56.9 °F 64 °F
Dew Point: 63.8 °F 56 °F 59.9 °F
Humidity: 97% 68.7% 88%
Wind Speed: 1mph 0mph 0.1mph
Wind Gust: 7mph - -
Wind- - SSW
Pressure: 29.97 in 29.81 in -
Precipitation: 0.09 in    
 
 
Tabular Data for March 4, 2021
Time Temperature Dew Point Pressure Wind Wind Speed Wind Gust Humidity Rainfall Rate (Hourly) solar
00:04 58.1 °F 57 °F 29.83 in Calm     96% 0.00 in 0 W/m2
00:09 58.1 °F 57 °F 29.83 in Calm     96% 0.00 in 0 W/m2
00:14 58 °F 56.9 °F 29.83 in Calm     96% 0.00 in 0 W/m2
00:19 58 °F 56.8 °F 29.83 in Calm     96% 0.00 in 0 W/m2
00:24 57.9 °F 56.7 °F 29.83 in Calm     96% 0.01 in 0 W/m2
00:29 57.8 °F 56.6 °F 29.83 in Calm     96% 0.01 in 0 W/m2
00:34 57.7 °F 56.6 °F 29.83 in Calm     96% 0.01 in 0 W/m2
00:39 57.6 °F 56.5 °F 29.83 in Calm     96% 0.01 in 0 W/m2
00:44 57.5 °F 56.4 °F 29.83 in Calm     96% 0.01 in 0 W/m2
00:49 57.5 °F 56.4 °F 29.83 in Calm     96% 0.01 in 0 W/m2
00:54 57.4 °F 56.3 °F 29.83 in Calm     96% 0.01 in 0 W/m2
00:59 57.4 °F 56.3 °F 29.83 in Calm     96% 0.01 in 0 W/m2
01:04 57.3 °F 56.2 °F 29.83 in Calm     96% 0.01 in 0 W/m2
01:09 57.3 °F 56.1 °F 29.83 in Calm     96% 0.00 in 0 W/m2
01:14 57.2 °F 56.1 °F 29.83 in Calm     96% 0.01 in 0 W/m2
01:19 57.2 °F 56.1 °F 29.82 in Calm     96% 0.01 in 0 W/m2
01:24 57.2 °F 56.1 °F 29.82 in Calm     96% 0.01 in 0 W/m2
01:29 57.2 °F 56.1 °F 29.83 in Calm     96% 0.01 in 0 W/m2
01:34 57.2 °F 56.1 °F 29.83 in Calm     96% 0.01 in 0 W/m2
01:39 57.2 °F 56.1 °F 29.83 in Calm     96% 0.01 in 0 W/m2
01:44 57.3 °F 56.1 °F 29.82 in Calm     96% 0.01 in 0 W/m2
01:49 57.3 °F 56.2 °F 29.82 in Calm     96% 0.01 in 0 W/m2
01:54 57.3 °F 56.2 °F 29.83 in Calm     96% 0.01 in 0 W/m2
01:59 57.3 °F 56.2 °F 29.82 in Calm     96% 0.01 in 0 W/m2
02:04 57.3 °F 56.2 °F 29.82 in Calm     96% 0.01 in 0 W/m2
02:09 57.3 °F 56.2 °F 29.82 in Calm     96% 0.01 in 0 W/m2
02:14 57.3 °F 56.2 °F 29.82 in Calm     96% 0.01 in 0 W/m2
02:19 57.3 °F 56.1 °F 29.82 in Calm     96% 0.01 in 0 W/m2
02:24 57.2 °F 56.1 °F 29.82 in Calm     96% 0.01 in 0 W/m2
02:29 57.2 °F 56.1 °F 29.82 in Calm     96% 0.01 in 0 W/m2
02:34 57.2 °F 56.3 °F 29.82 in Calm     96.9% 0.01 in 0 W/m2
02:39 57.2 °F 56.4 °F 29.82 in Calm     97% 0.00 in 0 W/m2
02:44 57.3 °F 56.4 °F 29.82 in Calm     97% 0.01 in 0 W/m2
02:49 57.3 °F 56.5 °F 29.82 in Calm     97% 0.01 in 0 W/m2
02:54 57.3 °F 56.5 °F 29.82 in Calm     97% 0.02 in 0 W/m2
02:59 57.3 °F 56.5 °F 29.82 in Calm     97% 0.02 in 0 W/m2
03:04 57.3 °F 56.5 °F 29.82 in Calm     97% 0.02 in 0 W/m2
03:09 57.3 °F 56.5 °F 29.81 in Calm     97% 0.03 in 0 W/m2
03:14 57.3 °F 56.5 °F 29.81 in Calm     97% 0.04 in 0 W/m2
03:19 57.3 °F 56.5 °F 29.81 in Calm     97% 0.04 in 0 W/m2
03:24 57.4 °F 56.5 °F 29.81 in Calm     97% 0.05 in 0 W/m2
03:29 57.4 °F 56.6 °F 29.81 in Calm     97% 0.05 in 0 W/m2
03:34 57.4 °F 56.6 °F 29.81 in Calm     97% 0.05 in 0 W/m2
03:39 57.5 °F 56.6 °F 29.81 in Calm     97% 0.05 in 0 W/m2
03:44 57.4 °F 56.6 °F 29.81 in Calm     97% 0.05 in 0 W/m2
03:49 57.3 °F 56.5 °F 29.81 in Calm     97% 0.05 in 0 W/m2
03:54 57.2 °F 56.4 °F 29.81 in Calm     97% 0.05 in 0 W/m2
03:59 57.2 °F 56.4 °F 29.81 in Calm     97% 0.06 in 0 W/m2
04:09 57.1 °F 56.3 °F 29.81 in Calm     97% 0.06 in 0 W/m2
04:14 57.1 °F 56.3 °F 29.81 in Calm     97% 0.06 in 0 W/m2
04:19 57.1 °F 56.3 °F 29.81 in Calm     97% 0.06 in 0 W/m2
04:24 57.1 °F 56.3 °F 29.81 in Calm     97% 0.06 in 0 W/m2
04:29 57.1 °F 56.2 °F 29.81 in Calm     97% 0.06 in 0 W/m2
04:34 57 °F 56.2 °F 29.81 in Calm     97% 0.06 in 0 W/m2
04:39 57 °F 56.2 °F 29.81 in Calm     97% 0.01 in 0 W/m2
04:44 57 °F 56.1 °F 29.81 in Calm     97% 0.01 in 0 W/m2
04:49 57 °F 56.1 °F 29.81 in Calm     97% 0.01 in 0 W/m2
04:54 56.9 °F 56.1 °F 29.82 in Calm     97% 0.01 in 0 W/m2
04:59 56.9 °F 56.1 °F 29.82 in Calm     97% 0.01 in 0 W/m2
05:04 56.9 °F 56 °F 29.81 in Calm     97% 0.01 in 0 W/m2
05:09 56.9 °F 56.1 °F 29.81 in Calm     97% 0.00 in 0 W/m2
05:14 56.9 °F 56.1 °F 29.81 in Calm     97% 0.00 in 0 W/m2
05:19 56.9 °F 56.1 °F 29.81 in Calm     97% 0.00 in 0 W/m2
05:24 57 °F 56.1 °F 29.81 in Calm     97% 0.01 in 0 W/m2
05:29 57 °F 56.2 °F 29.81 in Calm     97% 0.01 in 0 W/m2
05:34 57.1 °F 56.2 °F 29.81 in Calm     97% 0.01 in 0 W/m2
05:39 57.1 °F 56.3 °F 29.81 in Calm     97% 0.01 in 5 W/m2
05:44 57.1 °F 56.3 °F 29.81 in Calm     97% 0.01 in 9 W/m2
05:49 57.1 °F 56.3 °F 29.81 in Calm     97% 0.01 in 14 W/m2
05:54 57.1 °F 56.3 °F 29.81 in Calm     97% 0.01 in 14 W/m2
05:59 57.2 °F 56.4 °F 29.81 in Calm     97% 0.01 in 14 W/m2
06:04 57.3 °F 56.5 °F 29.81 in Calm     97% 0.01 in 14 W/m2
06:09 57.3 °F 56.5 °F 29.81 in Calm     97% 0.01 in 14 W/m2
06:14 57.4 °F 56.5 °F 29.81 in Calm     97% 0.01 in 16 W/m2
06:19 57.4 °F 56.6 °F 29.81 in Calm     97% 0.01 in 19 W/m2
06:24 57.4 °F 56.6 °F 29.82 in Calm     97% 0.01 in 19 W/m2
06:29 57.5 °F 56.7 °F 29.82 in Calm     97% 0.01 in 18 W/m2
06:34 57.6 °F 56.8 °F 29.82 in Calm     97% 0.01 in 18 W/m2
06:39 57.6 °F 56.8 °F 29.82 in Calm     97% 0.00 in 25 W/m2
06:44 57.6 °F 56.8 °F 29.82 in Calm     97% 0.00 in 30 W/m2
06:49 57.6 °F 56.8 °F 29.82 in Calm     97% 0.00 in 32 W/m2
06:54 57.6 °F 56.8 °F 29.82 in Calm     97% 0.00 in 30 W/m2
06:59 57.7 °F 56.9 °F 29.82 in Calm     97% 0.00 in 30 W/m2
07:04 57.7 °F 56.9 °F 29.82 in Calm     97% 0.00 in 30 W/m2
07:09 57.7 °F 56.9 °F 29.83 in Calm     97% 0.00 in 28 W/m2
07:14 57.8 °F 56.9 °F 29.83 in Calm     97% 0.00 in 39 W/m2
07:19 57.8 °F 57 °F 29.83 in Calm     97% 0.00 in 51 W/m2
07:24 57.9 °F 57 °F 29.83 in Calm     97% 0.00 in 70 W/m2
07:29 58 °F 57.1 °F 29.83 in Calm     97% 0.00 in 70 W/m2
07:34 58.1 °F 57.3 °F 29.83 in Calm     97% 0.00 in 54 W/m2
07:39 58.2 °F 57.4 °F 29.83 in Calm     97% 0.00 in 69 W/m2
07:44 58.3 °F 57.4 °F 29.83 in Calm     97% 0.00 in 69 W/m2
07:49 58.4 °F 57.5 °F 29.83 in Calm     97% 0.00 in 74 W/m2
07:54 58.4 °F 57.6 °F 29.83 in Calm     97% 0.00 in 72 W/m2
07:59 58.4 °F 57.6 °F 29.83 in Calm     97% 0.00 in 83 W/m2
08:09 58.6 °F 57.7 °F 29.84 in Calm     97% 0.00 in 100 W/m2
08:14 58.7 °F 57.9 °F 29.84 in Calm     97% 0.00 in 111 W/m2
08:19 58.9 °F 58 °F 29.84 in Calm     97% 0.00 in 114 W/m2
08:24 59 °F 58.2 °F 29.84 in Calm     97% 0.00 in 105 W/m2
08:29 59.1 °F 58.2 °F 29.84 in Calm     97% 0.00 in 98 W/m2
08:34 59 °F 58.2 °F 29.84 in Calm     97% 0.00 in 120 W/m2
08:39 59.1 °F 58.2 °F 29.84 in Calm     97% 0.00 in 146 W/m2
08:44 59.4 °F 58.5 °F 29.84 in Calm     97% 0.00 in 188 W/m2
08:49 59.6 °F 58.7 °F 29.84 in Calm     97% 0.00 in 188 W/m2
08:54 59.7 °F 58.8 °F 29.84 in Calm     97% 0.00 in 160 W/m2
08:59 59.8 °F 59 °F 29.84 in Calm     97% 0.00 in 141 W/m2
09:04 59.9 °F 59.1 °F 29.84 in Calm     97% 0.00 in 137 W/m2
09:09 60.1 °F 59.2 °F 29.85 in Calm     97% 0.00 in 120 W/m2
09:14 60.3 °F 59.4 °F 29.85 in Calm     97% 0.00 in 156 W/m2
09:19 60.5 °F 59.7 °F 29.85 in Calm     97% 0.00 in 158 W/m2
09:24 60.8 °F 60 °F 29.85 in Calm     97% 0.00 in 158 W/m2
09:29 61.1 °F 60.3 °F 29.85 in Calm     97% 0.00 in 160 W/m2
09:34 61.2 °F 60.3 °F 29.85 in Calm     97% 0.00 in 158 W/m2
09:39 61 °F 59.8 °F 29.85 in Calm     96% 0.00 in 163 W/m2
09:44 61.1 °F 60 °F 29.85 in Calm     96% 0.00 in 185 W/m2
09:49 61.4 °F 60.2 °F 29.85 in Calm     95.8% 0.00 in 185 W/m2
09:54 61.2 °F 59.8 °F 29.85 in Calm     95% 0.00 in 155 W/m2
09:59 61.4 °F 60 °F 29.85 in Calm     95% 0.00 in 183 W/m2
10:04 61.6 °F 59.9 °F 29.86 in Calm     94.3% 0.00 in 188 W/m2
10:09 61.6 °F 59.9 °F 29.86 in Calm     93.9% 0.00 in 169 W/m2
10:14 61.6 °F 59.6 °F 29.86 in Calm     93% 0.00 in 165 W/m2
10:19 61.6 °F 59.6 °F 29.86 in Calm     93% 0.00 in 195 W/m2
10:24 61.9 °F 59.9 °F 29.86 in Calm     93% 0.00 in 195 W/m2
10:29 62 °F 59.9 °F 29.86 in Calm     92.6% 0.00 in 195 W/m2
10:34 62.1 °F 59.8 °F 29.86 in Calm     92% 0.00 in 148 W/m2
10:39 62.4 °F 60 °F 29.86 in Calm     92% 0.00 in 165 W/m2
10:44 62.5 °F 60.1 °F 29.86 in Calm     92% 0.00 in 190 W/m2
10:49 62.6 °F 60.2 °F 29.86 in Calm     91.8% 0.00 in 345 W/m2
10:54 62.8 °F 60.4 °F 29.86 in Calm     91.9% 0.00 in 638 W/m2
10:59 63.4 °F 61.1 °F 29.86 in Calm     92.3% 0.00 in 638 W/m2
11:04 64 °F 61.6 °F 29.86 in ENE 0.2 mph 3 mph 92% 0.00 in 786 W/m2
11:09 65 °F 62.6 °F 29.87 in NE 0.3 mph 4 mph 92% 0.00 in 520 W/m2
11:14 65.9 °F 62.8 °F 29.87 in Calm   4 mph 89.7% 0.00 in 520 W/m2
11:19 66.8 °F 63.4 °F 29.87 in NE 0.1 mph 4 mph 88.9% 0.00 in 436 W/m2
11:24 67.1 °F 62.9 °F 29.87 in Calm   4 mph 86.5% 0.00 in 297 W/m2
11:29 67.1 °F 62.4 °F 29.87 in North 0.3 mph 6 mph 85% 0.00 in 316 W/m2
11:34 67 °F 62.3 °F 29.87 in Calm   6 mph 84.9% 0.00 in 332 W/m2
11:39 67.2 °F 62.6 °F 29.87 in Calm     85.4% 0.00 in 390 W/m2
11:44 67.2 °F 62.3 °F 29.87 in Calm     84.1% 0.00 in 427 W/m2
11:49 67.4 °F 62.6 °F 29.87 in Calm     84.5% 0.00 in 795 W/m2
11:54 67.8 °F 62.4 °F 29.87 in Calm     82.8% 0.00 in 795 W/m2
11:59 68.3 °F 63 °F 29.86 in Calm     83% 0.00 in 749 W/m2
12:04 68.9 °F 62.1 °F 29.86 in Calm     79% 0.00 in 459 W/m2
12:09 69.1 °F 62.8 °F 29.86 in Calm     80.5% 0.00 in 459 W/m2
12:14 69.4 °F 63.4 °F 29.86 in NNW 0.1 mph 2 mph 81.4% 0.00 in 559 W/m2
12:19 69.8 °F 63.3 °F 29.86 in ENE 0.7 mph 5 mph 79.8% 0.00 in 759 W/m2
12:24 69.9 °F 62.6 °F 29.86 in ENE 0.1 mph 5 mph 77.7% 0.00 in 877 W/m2
12:29 70.2 °F 63.3 °F 29.86 in NNE 0.8 mph 5 mph 78.6% 0.00 in 504 W/m2
12:34 70.4 °F 63 °F 29.86 in NNW 0.5 mph 5 mph 77.5% 0.00 in 415 W/m2
12:39 70.5 °F 62.6 °F 29.86 in North 0.5 mph 5 mph 76.1% 0.00 in 371 W/m2
12:44 70.5 °F 62.9 °F 29.86 in North 0.3 mph 5 mph 76.8% 0.00 in 355 W/m2
12:49 70.4 °F 62.7 °F 29.86 in North 0.8 mph 5 mph 76.5% 0.00 in 336 W/m2
12:54 70.3 °F 62.7 °F 29.86 in NNW 1 mph 7 mph 76.9% 0.00 in 388 W/m2
12:59 70.3 °F 62.4 °F 29.86 in NNE 0.8 mph 7 mph 76.1% 0.00 in 471 W/m2
13:04 70.3 °F 62.9 °F 29.86 in ENE 0.1 mph 7 mph 77.4% 0.00 in 443 W/m2
13:09 70.4 °F 62.9 °F 29.86 in Calm   2 mph 77.1% 0.00 in 441 W/m2
13:14 70.4 °F 62.7 °F 29.86 in ENE 0.6 mph 3 mph 76.7% 0.00 in 396 W/m2
13:19 70.5 °F 62.8 °F 29.86 in Calm   3 mph 76.6% 0.00 in 359 W/m2
13:24 70.7 °F 63.1 °F 29.86 in Calm   3 mph 76.7% 0.00 in 283 W/m2
13:29 70.6 °F 62.2 °F 29.86 in ENE 0.1 mph 3 mph 74.8% 0.00 in 360 W/m2
13:34 70.3 °F 62 °F 29.86 in NW 0.6 mph 7 mph 75% 0.00 in 439 W/m2
13:39 70.3 °F 62.8 °F 29.86 in Calm   7 mph 77.1% 0.00 in 427 W/m2
13:44 70.3 °F 62.5 °F 29.86 in West 0.7 mph 7 mph 76.2% 0.00 in 383 W/m2
13:49 70.4 °F 62.4 °F 29.86 in Calm   7 mph 75.8% 0.00 in 329 W/m2
13:54 70.6 °F 62.7 °F 29.86 in Calm   7 mph 76.3% 0.00 in 183 W/m2
13:59 70.6 °F 62.5 °F 29.86 in Calm   7 mph 75.4% 0.00 in 160 W/m2
14:04 70.6 °F 62.7 °F 29.86 in Calm   7 mph 76.2% 0.00 in 165 W/m2
14:09 70.6 °F 62.9 °F 29.86 in Calm     76.4% 0.00 in 195 W/m2
14:14 70.6 °F 62.7 °F 29.86 in Calm     76% 0.00 in 385 W/m2
14:19 70.7 °F 63 °F 29.86 in Calm     76.8% 0.00 in 1148 W/m2
14:24 70.9 °F 62.3 °F 29.86 in Calm     74.3% 0.00 in 1188 W/m2
14:29 71 °F 61.8 °F 29.86 in Calm     72.6% 0.00 in 339 W/m2
14:34 71 °F 61.8 °F 29.86 in Calm     72.7% 0.00 in 304 W/m2
14:39 71.2 °F 62.3 °F 29.86 in Calm     73.5% 0.00 in 318 W/m2
14:44 71.3 °F 61.8 °F 29.86 in Calm     72.1% 0.00 in 512 W/m2
14:49 71.5 °F 62.5 °F 29.86 in Calm     73.3% 0.00 in 401 W/m2
14:54 71.7 °F 62.6 °F 29.86 in Calm     73% 0.00 in 308 W/m2
14:59 72 °F 63.4 °F 29.86 in Calm     74.4% 0.00 in 327 W/m2
15:04 72.2 °F 63.2 °F 29.86 in Calm     73.4% 0.00 in 329 W/m2
15:09 72.3 °F 62.9 °F 29.86 in Calm     72.1% 0.00 in 304 W/m2
15:14 72.5 °F 63.4 °F 29.86 in Calm     73% 0.00 in 357 W/m2
15:19 72.6 °F 62.4 °F 29.86 in Calm     70.5% 0.00 in 369 W/m2
15:24 72.6 °F 62.7 °F 29.86 in Calm     71% 0.00 in 450 W/m2
15:29 72.7 °F 63 °F 29.86 in Calm     71.5% 0.00 in 350 W/m2
15:34 72.8 °F 62.7 °F 29.86 in Calm     70.4% 0.00 in 438 W/m2
15:39 73 °F 63 °F 29.86 in Calm     70.8% 0.00 in 673 W/m2
15:44 73.3 °F 63 °F 29.86 in Calm     70.1% 0.00 in 283 W/m2
15:49 73.6 °F 63.2 °F 29.86 in Calm     69.9% 0.00 in 272 W/m2
15:54 73.7 °F 63.4 °F 29.86 in Calm     70.2% 0.00 in 318 W/m2
15:59 73.8 °F 63.8 °F 29.87 in Calm     71% 0.00 in 325 W/m2
16:00 73.7 °F 62.9 °F 29.87 in Calm     69% 0.00 in 292 W/m2
16:09 73.7 °F 63.1 °F 29.87 in Calm     69.5% 0.00 in 292 W/m2
16:14 73.8 °F 63.3 °F 29.87 in Calm     69.8% 0.00 in 257 W/m2
16:19 73.8 °F 63.5 °F 29.87 in WNW 0.1 mph 3 mph 70.3% 0.00 in 237 W/m2
16:24 73.8 °F 63 °F 29.87 in WNW 0.6 mph 3 mph 69% 0.00 in 243 W/m2
16:29 73.8 °F 63.2 °F 29.87 in WNW 0.1 mph 3 mph 69.3% 0.00 in 206 W/m2
16:34 73.8 °F 62.9 °F 29.87 in WNW 0.9 mph 4 mph 68.8% 0.00 in 158 W/m2
16:39 73.8 °F 63.8 °F 29.87 in WNW 0.6 mph 4 mph 70.8% 0.00 in 185 W/m2
16:44 73.8 °F 62.9 °F 29.87 in NNW 0.7 mph 4 mph 68.8% 0.00 in 195 W/m2
16:49 73.7 °F 63.3 °F 29.87 in NE 0.6 mph 4 mph 70% 0.00 in 195 W/m2
16:54 73.7 °F 63.7 °F 29.87 in NE 0.9 mph 4 mph 70.9% 0.00 in 167 W/m2
16:59 73.6 °F 62.7 °F 29.87 in NNE 0.9 mph 5 mph 68.7% 0.00 in 174 W/m2
17:04 73.5 °F 63.2 °F 29.88 in NW 0.3 mph 5 mph 70.2% 0.00 in 171 W/m2
17:09 73.5 °F 62.6 °F 29.87 in Calm   4 mph 68.9% 0.00 in 121 W/m2
17:14 73.4 °F 62.6 °F 29.87 in Calm   4 mph 69% 0.00 in 100 W/m2
17:19 73.4 °F 63 °F 29.87 in Calm   4 mph 70% 0.00 in 130 W/m2
17:24 73.5 °F 63.3 °F 29.87 in Calm   4 mph 70.4% 0.00 in 146 W/m2
17:28 73.6 °F 63.1 °F 29.87 in NE 0.4 mph 4 mph 69.7% 0.00 in 153 W/m2
17:30 73.7 °F 63.3 °F 29.87 in Calm   4 mph 70% 0.00 in 123 W/m2
18:30 73.3 °F 62.9 °F 29.89 in Calm   7 mph 70% 0.00 in 69 W/m2
19:00 73.3 °F 62.5 °F 29.91 in Calm   3 mph 69% 0.00 in 43 W/m2
19:30 72.5 °F 62.6 °F 29.91 in Calm   4 mph 71% 0.00 in 26 W/m2
20:04 71.6 °F 62.1 °F 29.92 in Calm     72% 0.00 in 9 W/m2
20:09 71.5 °F 62.4 °F 29.92 in Calm     73% 0.00 in 7 W/m2
20:14 71.3 °F 62.2 °F 29.93 in Calm     73% 0.00 in 7 W/m2
20:19 71.1 °F 62.1 °F 29.93 in Calm     73.2% 0.00 in 5 W/m2
20:24 70.9 °F 62.2 °F 29.93 in Calm     73.9% 0.00 in 0 W/m2
20:29 70.7 °F 62.1 °F 29.92 in Calm     74.3% 0.00 in 0 W/m2
20:34 70.4 °F 62 °F 29.92 in Calm     74.7% 0.00 in 0 W/m2
20:39 70.2 °F 61.9 °F 29.93 in Calm     75.2% 0.00 in 0 W/m2
20:44 69.9 °F 62.1 °F 29.93 in Calm     76.3% 0.00 in 0 W/m2
20:49 69.6 °F 62.3 °F 29.93 in Calm     77.6% 0.00 in 0 W/m2
20:54 69.2 °F 62 °F 29.93 in Calm     78% 0.00 in 0 W/m2
20:59 68.8 °F 61.9 °F 29.93 in Calm     78.6% 0.00 in 0 W/m2
21:04 68.5 °F 61.8 °F 29.93 in Calm     79% 0.00 in 0 W/m2
21:09 68.3 °F 61.8 °F 29.93 in Calm     79.7% 0.00 in 0 W/m2
21:14 68.1 °F 62 °F 29.93 in Calm     80.7% 0.00 in 0 W/m2
21:19 67.9 °F 61.9 °F 29.94 in Calm     81% 0.00 in 0 W/m2
21:24 67.7 °F 62 °F 29.94 in Calm     81.9% 0.00 in 0 W/m2
21:29 67.5 °F 62.1 °F 29.94 in Calm     82.7% 0.00 in 0 W/m2
21:34 67.3 °F 61.9 °F 29.94 in Calm     83% 0.00 in 0 W/m2
21:39 67 °F 62 °F 29.95 in Calm     83.9% 0.00 in 0 W/m2
21:44 66.9 °F 62 °F 29.95 in Calm     84.5% 0.00 in 0 W/m2
21:49 66.7 °F 62.2 °F 29.95 in Calm     85.3% 0.00 in 0 W/m2
21:54 66.6 °F 62.3 °F 29.95 in Calm     86% 0.00 in 0 W/m2
21:59 66.5 °F 62.3 °F 29.95 in Calm     86.6% 0.00 in 0 W/m2
22:04 66.3 °F 62.3 °F 29.95 in Calm     87% 0.00 in 0 W/m2
22:09 66.1 °F 62.2 °F 29.95 in Calm     87% 0.00 in 0 W/m2
22:14 66 °F 62.3 °F 29.95 in Calm     87.9% 0.00 in 0 W/m2
22:19 65.9 °F 62.2 °F 29.95 in Calm     88% 0.00 in 0 W/m2
22:24 65.7 °F 62.1 °F 29.95 in Calm     88% 0.00 in 0 W/m2
22:29 65.6 °F 62.3 °F 29.95 in Calm     89% 0.00 in 0 W/m2
22:34 65.5 °F 62.2 °F 29.95 in Calm     89% 0.00 in 0 W/m2
22:39 65.4 °F 62.1 °F 29.95 in Calm     89% 0.00 in 0 W/m2
22:44 65.3 °F 62.2 °F 29.95 in Calm     89.5% 0.00 in 0 W/m2
22:49 65.2 °F 62.2 °F 29.95 in Calm     89.9% 0.00 in 0 W/m2
22:54 65.2 °F 62.2 °F 29.95 in Calm     90% 0.00 in 0 W/m2
22:59 65 °F 62 °F 29.96 in Calm     90% 0.00 in 0 W/m2
23:04 65 °F 62 °F 29.96 in Calm     90% 0.00 in 0 W/m2
23:09 64.9 °F 61.9 °F 29.96 in Calm     90% 0.00 in 0 W/m2
23:14 64.8 °F 62.1 °F 29.96 in Calm     91.1% 0.00 in 0 W/m2
23:19 64.7 °F 62 °F 29.96 in Calm     91% 0.00 in 0 W/m2
23:24 64.6 °F 61.9 °F 29.96 in Calm     91% 0.00 in 0 W/m2
23:29 64.6 °F 61.9 °F 29.96 in Calm     91% 0.00 in 0 W/m2
23:34 64.5 °F 61.8 °F 29.97 in Calm     91% 0.00 in 0 W/m2
23:39 64.4 °F 61.9 °F 29.97 in Calm     91.6% 0.00 in 0 W/m2
23:44 64.3 °F 61.9 °F 29.97 in Calm     92% 0.00 in 0 W/m2
23:49 64.2 °F 61.7 °F 29.97 in Calm     91.4% 0.00 in 0 W/m2
23:54 64.1 °F 61.7 °F 29.97 in Calm     91.9% 0.00 in 0 W/m2
23:59 64 °F 61.7 °F 29.97 in Calm     92% 0.00 in 0 W/m2
Hartford County Weather
Compliments of Weather Underground - 2 mb